User: anonymous   Login
Location: Caltech
(34.1382°N, 118.1253°W)
Time: 15:03:43
(UTC-07:00)
Language:

OAO 2 Rocket - Orbit

View from above orbital plane
View from above orbital plane
View from above satellite
View from above satellite

Ground track
Ground track

The orbit data is extracted from the following two-line orbital elements,

1 03598U 68110B   15209.53143259  .00000112  00000-0  30877-4 0  9993
2 03598 034.9935 271.0194 0049333 033.7847 326.5975 14.54078972466020
Epoch (UTC): 28 July 2015 12:45:15
Eccentricity: 0.0049333
inclination: 34.9935°
perigee height: 677 km
apogee height: 747 km
right ascension of ascending node: 271.0194°
argument of perigee: 33.7847°
revolutions per day: 14.54078972
mean anomaly at epoch: 326.5975°
orbit number at epoch: 46602

The dashed part of the orbit path shows where the satellite is in the earth's shadow,  

DLR